VK5KJP Weather Reports


Display with metric or nautical units.
time (UTC)temp
F
wind
direction
speed
MPH
gust
MPH
rain 1hr
in
rain 24hr
in
rain mn
in
humidity
%
barometer
mb
20260504222551 55 200 7.0 11.0 0.00 0.13 0.00 90 1025.5
20260504221535 54 228 5.0 7.0 0.00 0.24 0.00 92 1025.4
20260504220551 54 241 4.0 8.0 0.00 0.30 0.00 93 1025.4
20260504215551 54 225 3.0 8.0 0.00 0.30 0.00 93 1025.2
20260504214551 54 225 5.0 6.0 0.00 0.30 0.00 93 1025.1
20260504213551 54 225 7.0 10.0 0.00 0.30 0.00 94 1025.0
20260504212525 54 248 6.0 8.0 0.00 0.30 0.00 94 1024.9
20260504211551 53 225 6.0 9.0 0.00 0.30 0.00 94 1024.9
20260504210535 53 225 7.0 9.0 0.00 0.31 0.00 95 1024.8
20260504205551 52 248 6.0 9.0 0.00 0.31 0.00 95 1024.7
20260504204551 52 248 5.0 7.0 0.00 0.36 0.00 95 1024.6
20260504203551 52 248 6.0 8.0 0.00 0.41 0.00 94 1024.5
20260504202551 52 254 7.0 9.0 0.00 0.41 0.00 94 1024.5
20260504201551 53 248 7.0 9.0 0.00 0.41 0.00 94 1024.4
20260504200611 53 248 8.0 9.0 0.00 0.41 0.00 94 1024.3
20260504195535 53 239 9.0 11.0 0.00 0.43 0.00 94 1024.2
20260504194551 53 248 5.0 9.0 0.00 0.43 0.00 95 1024.1
20260504193551 53 225 6.0 8.0 0.00 0.43 0.00 95 1024.1
20260504192643 53 228 7.0 9.0 0.00 0.43 0.00 95 1024.0
20260504191551 53 248 5.0 8.0 0.00 0.43 0.00 95 1024.0
20260504190525 51 248 5.0 8.0 0.00 0.43 0.00 95 1023.9
20260504185611 50 270 4.0 6.0 0.00 0.43 0.00 95 1023.9
20260504184535 50 270 5.0 7.0 0.00 0.43 0.00 94 1023.8
20260504183550 50 270 5.0 6.0 0.00 0.43 0.00 94 1023.6
20260504182551 50 270 7.0 9.0 0.00 0.43 0.00 94 1023.6
20260504181551 50 270 8.0 9.0 0.00 0.43 0.00 94 1023.6
20260504180550 51 270 4.0 8.0 0.00 0.43 0.00 93 1023.6
20260504175526 51 270 7.0 8.0 0.00 0.43 0.00 93 1023.5
20260504174611 53 267 7.0 9.0 0.00 0.43 0.00 92 1023.5
20260504173535 53 248 6.0 9.0 0.00 0.43 0.00 92 1023.5
20260504172611 53 248 7.0 9.0 0.00 0.43 0.00 92 1023.6
20260504171550 53 244 8.0 11.0 0.00 0.43 0.00 92 1023.6
20260504170550 53 225 8.0 9.0 0.00 0.43 0.00 92 1023.7
20260504150550 50 270 9.0 11.0 0.00 0.43 0.00 93 1023.6
20260504140616 52 270 5.0 8.0 0.00 0.43 0.43 92 1023.2
20260504130550 52 270 8.0 9.0 0.00 0.44 0.43 93 1023.1
20260504110551 55 256 11.0 16.0 0.00 0.44 0.43 89 1022.2
20260504100550 58 255 11.0 12.0 0.00 0.44 0.43 82 1021.3
20260504081536 60 250 10.0 11.0 0.00 0.66 0.43 78 1019.6
20260504080711 61 253 10.0 12.0 0.00 0.68 0.43 76 1019.5
20260504050546 66 227 14.0 23.0 0.00 0.77 0.43 65 1017.8
20260504045550 66 214 14.0 17.0 0.00 0.77 0.43 66 1017.7
20260504044536 66 250 16.0 18.0 0.00 0.77 0.43 64 1017.6
20260504043550 66 242 13.0 15.0 0.00 0.77 0.43 70 1017.5
20260504042610 67 223 15.0 19.0 0.00 0.77 0.43 68 1017.5
20260504041550 67 232 14.0 22.0 0.00 0.77 0.43 68 1017.4
20260504040550 66 240 16.0 24.0 0.00 0.77 0.43 70 1017.4
20260504035526 66 254 16.0 19.0 0.00 0.77 0.43 70 1017.5
20260504034550 66 244 16.0 19.0 0.00 0.77 0.43 72 1017.5
20260504033616 65 247 13.0 16.0 0.00 0.77 0.43 71 1017.5
20260504032610 66 226 13.0 17.0 0.00 0.77 0.43 68 1017.5
20260504031549 65 236 12.0 17.0 0.00 0.77 0.43 71 1017.6
20260504030610 65 235 12.0 15.0 0.00 0.77 0.43 73 1017.7
20260504025549 64 243 13.0 16.0 0.00 0.77 0.43 75 1017.7
20260504024546 62 244 8.0 13.0 0.00 0.77 0.43 85 1017.8
20260504023550 61 250 12.0 14.0 0.00 0.77 0.43 90 1018.0
20260504022536 60 254 11.0 14.0 0.00 0.77 0.43 95 1018.0
20260504021550 59 254 8.0 12.0 0.00 0.77 0.43 95 1018.2
20260504020550 60 257 12.0 15.0 0.00 0.77 0.43 95 1018.3
20260504015550 60 249 9.0 13.0 0.02 0.77 0.43 95 1018.1
20260504014549 59 248 11.0 14.0 0.02 0.77 0.43 95 1018.2
20260504013526 59 252 12.0 14.0 0.02 0.77 0.43 96 1018.2
20260504012610 59 243 6.0 10.0 0.02 0.77 0.43 96 1018.3
20260504011616 58 244 5.0 10.0 0.03 0.77 0.43 96 1018.3
20260504010549 59 203 9.0 15.0 0.03 0.77 0.43 96 1018.3
20260504005550 59 239 5.0 9.0 0.02 0.76 0.41 96 1018.1
20260504004550 58 258 8.0 10.0 0.02 0.76 0.41 96 1018.0
20260504003549 58 251 7.0 10.0 0.02 0.76 0.41 96 1017.9
20260504002526 58 238 7.0 13.0 0.02 0.76 0.41 96 1017.8
20260504001549 58 243 12.0 16.0 0.00 0.74 0.39 96 1017.7
20260504000536 58 249 11.0 14.0 0.03 0.74 0.39 96 1017.7
20260503235549 58 260 10.0 14.0 0.08 0.74 0.39 96 1017.6
20260503234549 57 262 5.0 9.0 0.09 0.74 0.39 96 1017.7
20260503233549 57 267 7.0 11.0 0.09 0.74 0.39 96 1017.5
20260503232549 57 261 3.0 6.0 0.09 0.74 0.39 96 1017.4
20260503231526 57 211 6.0 11.0 0.20 0.74 0.39 96 1017.4
20260503230549 57 233 1.0 13.0 0.24 0.71 0.36 95 1017.2
20260503225536 56 255 6.0 9.0 0.19 0.66 0.31 94 1017.0
20260503224550 57 245 4.0 8.0 0.17 0.65 0.30 94 1016.8
20260503223550 57 264 5.0 11.0 0.17 0.65 0.30 94 1016.8